Location: Newark
(12.5331°N, 56.4669°W)
Time: 00:53:58
(UTC+00:00)

Envisat - Pass Details

Date: 02 February 2020
Orbit: 764 x 766 km, 98.1° (Epoch: 25 February)

Event Time Altitude Azimuth Distance (km) Brightness Sun altitude
Rises 09:43:45 0° 22° (NNE) 3,216 6.3 -7.3°
Reaches altitude 10° 09:46:09 10° 29° (NNE) 2,291 5.6 -6.8°
Maximum altitude 09:50:57 45° 101° (E) 1,032 4.4 -5.6°
Drops below altitude 10° 09:55:45 10° 173° (S) 2,290 5.8 -4.5°
Sets 09:58:08 0° 179° (S) 3,215 6.5 -3.9°
